[ hide orbit diagram ]
For accurate long-term ephemerides, please instead use our Horizons system.This orbit viewer was implemented using two-body methods, and hence should not be used for determining accurate long-term trajectories (over several years or decades) or planetary encounter circumstances.
Orbital Elements at Epoch 2459000.5 (2020-May-31.0) TDB
Reference: JPL 19 (heliocentric ecliptic J2000)
Element | Value | Uncertainty (1-sigma) | Units |
e | .1882807019840821 | 6.1239e-08 | |
a | 2.354823967861007 | 1.487e-08 | au |
q | 1.911456058143195 | 1.3828e-07 | au |
i | 6.179051160581326 | 4.7385e-06 | deg |
node | 234.5005040566826 | 4.3587e-05 | deg |
peri | 141.962605212237 | 4.5941e-05 | deg |
M | 123.4405809525106 | 1.7085e-05 | deg |
tp | 2458547.923963892592 (2019-Mar-05.42396389) | 6.0175e-05 | TDB |
period | 1319.88501464804 3.61 | 1.2502e-05 3.423e-08 | d yr |
n | .2727510321010784 | 2.5836e-09 | deg/d |
Q | 2.798191877578819 | 1.767e-08 | au |
|
| | Orbit Determination Parameters
Additional Information
|
[ show covariance matrix ]
Physical Parameter Table
Parameter |
Symbol |
Value |
Units |
Sigma |
Reference |
Notes |
absolute magnitude |
H |
16.41 |
|
n/a |
E2021B55 |
|
|
245174 (2004 TO135) Discovered 2004-Oct-08 by LONEOS at Anderson Mesa |
Reference: 20100726/Numbers.arc | Last Updated: 2010-07-28 |
|
|